Content
SEND FEEDBACK

Daily
Averages
Monthly
Summary
United States of America

LOWER ECHO LAKE, CALIFORNIA


Home > North America > United States > California
Elevation: 6350 feet     Latitude: 38 51N     Longitude: 120 01W

WEATHER
 
SELECT A DAY
Number of Records: 176,494;   Date Range: 1/1/95 - 9/29/14
 
SHARE

PRINT THIS DATA

[ ← Previous Day ]
WEATHER ALMANAC - MARCH 16, 2013
[ Next Day → ]
[ °C ]   °F
Weather ElementAverageHighLow
Temperature41.7 °F57 °F (12:53 pm)28 °F (5:53 am)
Dewpoint21.7 °F28.9 °F (10:53 am)10.9 °F (11:53 am)
Humidity50.7 %78 % (5:53 am)17 % (11:53 am)
Barometer30.07 in30.12 in (7:53 am)30.02 in (2:53 pm)
Wind Speed3.9 mph10.4 mph (7:53 pm)
Weather ElementAverage
Visibility10 mi
Wind DirectionENE (63.5 °)

Weather ElementTotal
Precipitation---
Heating Degree Days22.5 (Base 65)
Averaged from 23 records on March 16, 2013
WEATHER CONDITIONS BREAKOUT
WIND DIRECTION BREAKOUT
WEATHER BY HOUR - MARCH 16, 2013
[ °C ]   °F
Local TimeTemperatureDewpointHumidityBarometerVisibilityWind DirectionWind SpeedGust SpeedPrecipitationEventsConditions
1:53 AM33.1 °F24.1 °F70 %30.10 in10.0 miCalmClear
2:53 AM30.9 °F23.0 °F72 %30.07 in10.0 miCalmClear
3:53 AM28.9 °F21.9 °F75 %30.07 in10.0 miCalmClear
4:53 AM28.9 °F21.9 °F75 %30.07 in10.0 miCalmClear
5:53 AM28.0 °F21.9 °F78 %30.08 in10.0 miSouth (190°)3.5 mphClear
6:53 AM28.9 °F19.9 °F69 %30.09 in10.0 miCalmClear
7:53 AM28.0 °F21.0 °F75 %30.12 in10.0 miCalmClear
8:53 AM33.1 °F21.0 °F61 %30.12 in10.0 miCalmClear
9:53 AM44.1 °F23.0 °F43 %30.08 in10.0 miENE (60°)5.8 mphClear
10:53 AM51.1 °F28.9 °F43 %30.08 in10.0 miNE (50°)8.1 mphClear
11:53 AM55.9 °F10.9 °F17 %30.06 in10.0 miSSW (200°)9.2 mphClear
12:53 PM57.0 °F12.9 °F18 %30.04 in10.0 miSouth (180°)9.2 mphClear
1:53 PM57.0 °F14.0 °F18 %30.03 in10.0 miVariable3.5 mphClear
2:53 PM54.0 °F19.9 °F26 %30.02 in10.0 miVariable5.8 mphClear
3:53 PM55.0 °F21.0 °F27 %30.02 in10.0 miVariable6.9 mphClear
4:53 PM53.1 °F21.9 °F30 %30.03 in10.0 miSSW (210°)8.1 mphClear
5:53 PM51.1 °F19.9 °F29 %30.04 in10.0 miVariable4.6 mphPartly Cloudy
6:53 PM48.0 °F23.0 °F37 %30.05 in10.0 miSSE (160°)9.2 mphOvercast
7:53 PM45.0 °F26.1 °F48 %30.07 in10.0 miSouth (190°)10.4 mphPartly Cloudy
8:53 PM42.1 °F27.0 °F55 %30.07 in10.0 miSW (220°)4.6 mphClear
9:53 PM39.0 °F26.1 °F60 %30.06 in10.0 miCalmClear
10:53 PM34.0 °F25.0 °F70 %30.07 in10.0 miCalmClear
11:53 PM33.1 °F24.1 °F70 %30.06 in10.0 miCalmClear
Hourly data recorded from KTVL, located miles away from Lower Echo Lake, California







STORIES FROM OUR PARTNERS